Weather Service Report


578 
ASUS46 KSTO 270015
RWRCA 

NORTHERN AND CENTRAL CA REGIONAL WEATHER ROUNDUP
NATIONAL WEATHER SERVICE SACRAMENTO CA 
500 PM PDT SUN JUN 26 2016

NOTE: FAIR INDICATES FEW OR NO CLOUDS BELOW 12,000 FEET WITH NO
SIGNIFICANT WEATHER AND/OR OBSTRUCTIONS TO VISIBILITY.

CAZ001-003-270100-
NORTHWEST AREA
  
CITY           SKY/WX    TMP DP  RH WIND       PRES   REMARKS
CRESCENT CITY  CLOUDY    56  52  86 CALM      30.14R                  
UKIAH          SUNNY     94  36  13 W16G22    29.97S                  
$$

CAZ006-505>513-270100-
BAY AREA
  
CITY           SKY/WX    TMP DP  RH WIND       PRES   REMARKS
SANTA ROSA     SUNNY     92  55  28 S8        29.90F HX  90           
SAN RAFAEL     N/A       88  MM  MM MISG
NAPA           SUNNY     85  55  35 S13       29.91F                  
CONCORD        SUNNY     98  38  12 W9        29.90S HX  93           
OAKLAND CITY   N/A       78  MM  MM MISG
OAKLAND        MOSUNNY   72  53  51 W17       29.96S                  
SAN FRAN CITY  N/A       66  MM  59 MISG
SAN FRAN ARPT  MOSUNNY   67  51  56 W25       29.96S                  
LIVERMORE      SUNNY     97  44  16 W14       29.92S HX  93           
HAYWARD        SUNNY     74  53  48 W13       29.95F                  
REDWOOD CITY   N/A       88  MM  25 MISG
MOFFETT ARPT   SUNNY     76  55  48 N15       29.96S                  
SAN JOSE ARPT  MOSUNNY   84  53  34 NW14      29.94S                  
$$
CAZ034-037-514>518-270100-
CENTRAL COAST
  
CITY           SKY/WX    TMP DP  RH WIND       PRES   REMARKS
WATSONVILLE    SUNNY     68  53  58 SE9       29.96F                  
SALINAS        SUNNY     68  52  56 NW15      29.95F                  
MONTEREY       MOSUNNY   64  51  62 W9        29.99F                  
SAN LUIS OBISP SUNNY     76  51  41 NW15      29.86S                  
SANTA MARIA    MOSUNNY   69  53  56 NW9       29.90S                  
$$
CAZ015-016-270100-
NORTHERN SACRAMENTO VALLEY
  
CITY           SKY/WX    TMP DP  RH WIND       PRES   REMARKS
REDDING        SUNNY    101  36  10 SW3       29.88S HX  95           
RED BLUFF      SUNNY    102  36  10 E7        29.88F HX  96           
OROVILLE       MOSUNNY  101  37  11 W5        29.90F HX  95           
$$
CAZ016>018-270100-
SOUTHERN SACRAMENTO VALLEY
  
CITY           SKY/WX    TMP DP  RH WIND       PRES   REMARKS
AUBURN         SUNNY     97  45  16 NW7       29.99S HX  93           
BEALE AFB      SUNNY    101  40  12 VRB2      29.86F HX  96           
LINCOLN        FAIR     100  34  10 N3        29.87S HX  94           
MARYSVILLE     SUNNY    102  36  10 MISG      29.87F HX  96           
SAC INTL ARPT  MOSUNNY  100  46  16 W5        29.86F HX  96           
MATHER AIRPORT NOT AVBL                                               
DOWNTOWN SAC   N/A      104  MM  MM MISG
SAC EXEC ARPT  SUNNY    102  47  15 W6        29.87F HX  98           
VACAVILLE      SUNNY    102  49  16 S10G18    29.88F HX  99           
TRAVIS AFB     SUNNY     97  49  20 W17       29.86F HX  93           
$$
CAZ019>021-270100-
SAN JOAQUIN VALLEY
  
CITY           SKY/WX    TMP DP  RH WIND       PRES   REMARKS
STOCKTON       SUNNY    100  46  16 NW13      29.87F HX  96           
MODESTO        SUNNY    103  45  14 NW12      29.86F HX  99           
MERCED         SUNNY    102  42  13 NW15G24   29.86F HX  97           
LEMOORE        MOSUNNY  102  37  10 N13       29.86F HX  96           
FRESNO         MOSUNNY  102  42  13 W10       29.87F HX  97           
HANFORD        SUNNY    100  42  13 N10       29.87F HX  95           
PORTERVILLE    MOSUNNY  102  53  19 W13       29.87F HX 100           
BAKERSFIELD    SUNNY    101  44  14 NW12      29.87F HX  97           
$$
CAZ011-012-071-270100-
NORTHERN MOUNTAINS
  
CITY           SKY/WX    TMP DP  RH WIND       PRES   REMARKS
YREKA          SUNNY     94  43  17 NW12      30.04F HX  90           
MOUNT SHASTA   SUNNY     87  46  24 CALM      30.08F                  
ALTURAS        SUNNY     90  30  11 W8G18     30.11F                  
$$
CAZ011-012-071-270100-
SIERRA NEVADA MTNS
  
CITY           SKY/WX    TMP DP  RH WIND       PRES   REMARKS
BLUE CANYON    SUNNY     78  37  22 W8        30.25F                  
TAHOE VLY ARPT SUNNY     81  32  17 MISG      30.27R                  
MAMMOTH LAKES  FAIR      83  27  12 W23G32    30.31F                  
$$
  

Return to Home page


Western Regional Climate Center, wrcc@dri.edu